Location: Auttagershofen
(48.1940°N, 10.0237°E)
Time: 11:41:07
(UTC+00:00)

Cosmos 2082 Rocket - Pass Details

Date: 18 January 2026
Orbit: 831 x 853 km, 71.0° (Epoch: 16 February)

Event Time Altitude Azimuth Distance (km) Brightness Sun altitude
Exits shadow 04:12:00 30° 358° (N) 1,485 3.4 -28.1°
Maximum altitude 04:14:30 49° 55° (NE) 1,090 3.0 -27.7°
Drops below altitude 10° 04:19:59 10° 130° (SE) 2,472 5.3 -26.7°
Sets 04:22:31 0° 136° (SE) 3,406 6.0 -26.3°
